Lapse_Rate
4.3 4.6 4.8 5.0 5.1 5.2 5.4 5.4 5.6 5.6 5.5 5.5 5.6 5.6 5.8 5.9 5.9 5.9 5.9 5.7 5.7 5.6 5.6 5.7 5.9 5.9 5.9 5.8 5.7 5.7 5.9 5.7 5.6 5.7 6.0 6.4 6.5 6.7 6.8 6.8 7.0 7.1 7.0
4.8 4.9 5.0 5.1 5.3 5.5 5.6 5.6 5.7 5.7 5.8 5.8 5.8 5.9 6.2 6.1 6.2 6.1 6.1 6.1 6.0 5.9 5.8 5.8 6.0 6.0 5.8 5.8 5.9 5.9 6.0 6.1 5.8 5.7 5.8 6.2 6.6 6.6 6.7 6.8 7.0 7.0 6.8
5.0 5.1 5.2 5.3 5.6 5.7 5.6 5.6 5.7 5.8 5.9 5.9 6.0 6.1 6.3 6.3 6.3 6.4 6.4 6.4 6.3 6.2 6.0 5.8 5.7 5.8 5.8 5.9 5.9 5.8 5.8 5.8 5.8 5.5 5.7 5.9 6.2 6.4 6.7 6.6 6.9 6.8 6.7
5.2 5.2 5.3 5.5 5.7 5.7 5.6 5.5 5.6 5.7 5.9 6.1 6.2 6.2 6.2 6.3 6.3 6.4 6.5 6.4 6.2 6.1 6.0 5.8 5.8 6.1 5.9 6.1 6.1 5.9 5.9 5.7 5.5 5.7 5.8 6.1 6.3 6.7 6.6 6.7 6.7 6.8 6.7
5.3 5.3 5.4 5.5 5.7 5.6 5.6 5.5 5.6 5.7 5.9 6.0 6.1 6.2 6.1 6.2 6.3 6.4 6.3 6.2 6.1 6.1 6.0 5.9 5.8 5.9 6.0 6.1 6.2 6.1 5.9 5.8 5.7 5.7 5.8 6.2 6.3 6.4 6.5 6.7 6.7 6.7 6.7
5.4 5.4 5.4 5.6 5.6 5.6 5.5 5.4 5.4 5.6 5.8 6.1 6.2 6.1 6.1 6.1 6.1 6.1 6.0 6.1 6.1 5.9 5.8 5.8 5.8 5.7 5.9 6.0 6.1 6.1 5.9 5.8 5.8 5.9 6.0 6.2 6.2 6.4 6.6 6.5 6.6 6.7 6.6
5.5 5.4 5.5 5.6 5.6 5.6 5.3 5.3 5.4 5.6 5.9 6.1 6.1 6.0 6.0 5.8 5.9 6.0 6.0 5.8 5.9 5.9 5.9 5.9 6.0 5.9 5.9 6.1 6.1 6.1 6.0 5.8 5.9 6.0 6.0 6.2 6.3 6.5 6.5 6.6 6.5 6.4 6.4
5.6 5.7 5.7 5.6 5.6 5.5 5.3 5.4 5.6 5.8 6.0 6.0 6.0 6.0 5.9 5.9 6.0 6.0 5.8 5.7 5.7 5.6 5.7 5.9 6.0 5.9 5.8 5.6 5.9 5.9 6.0 6.0 6.0 6.0 6.0 6.1 6.2 6.3 6.4 6.4 6.3 6.3 6.4
5.5 5.7 5.6 5.7 5.6 5.5 5.3 5.4 5.6 5.9 5.9 5.8 5.8 5.8 5.7 5.9 6.0 5.8 5.6 5.7 5.5 5.4 5.3 5.5 5.7 5.7 5.3 5.1 5.3 5.7 5.7 5.7 5.9 5.9 6.0 6.1 6.3 6.2 6.2 6.2 6.3 6.4 6.3
5.5 5.5 5.6 5.6 5.6 5.4 5.2 5.4 5.7 5.8 5.7 5.8 5.9 5.9 5.9 6.1 6.1 5.9 5.7 5.4 5.5 5.4 5.1 5.2 5.3 5.3 5.3 5.4 5.3 5.5 5.6 5.6 5.6 5.6 5.7 6.0 6.1 6.3 6.3 6.3 6.3 6.4 6.6
5.5 5.5 5.5 5.5 5.5 5.2 5.3 5.5 5.6 5.5 5.8 5.8 5.9 6.0 5.7 6.0 6.1 6.0 5.8 5.6 5.6 5.4 5.3 5.0 5.1 4.9 5.0 5.2 5.1 5.1 5.4 5.6 5.6 5.8 5.8 5.9 6.1 6.3 6.3 6.4 6.5 6.6 6.6
5.7 5.7 5.5 5.5 5.4 5.2 5.3 5.5 5.4 5.5 5.9 5.5 5.7 5.9 5.7 5.7 5.8 6.2 6.1 5.7 5.5 5.2 5.1 5.0 5.0 4.8 4.9 5.0 4.6 4.8 5.0 5.2 5.4 5.5 5.8 6.1 6.0 6.1 6.3 6.4 6.5 6.6 6.7
5.7 5.7 5.7 5.5 5.3 5.3 5.3 5.4 5.4 5.6 5.6 5.5 5.5 5.2 5.3 5.4 5.8 6.1 6.0 5.8 5.6 5.1 5.0 5.1 5.1 4.8 4.8 4.6 4.7 4.6 4.7 5.3 5.1 5.2 5.6 6.0 6.2 6.0 6.2 6.3 6.3 6.5 6.5
5.7 5.6 5.7 5.4 5.3 5.3 5.3 5.2 5.4 5.6 5.6 5.5 5.8 5.6 5.5 5.7 6.3 6.0 5.9 5.8 5.5 5.4 5.4 5.4 4.9 4.7 4.4 4.5 4.3 4.3 4.7 4.8 5.1 5.2 5.3 5.7 6.0 6.2 6.2 6.2 6.3 6.4 6.5
5.7 5.6 5.6 5.5 5.3 5.2 5.4 5.4 5.4 5.7 5.5 5.3 5.7 5.3 5.4 5.6 5.7 6.1 5.9 5.6 5.5 5.5 5.4 5.4 5.0 4.8 4.6 4.6 4.6 4.4 4.7 5.0 4.8 5.0 5.3 5.6 5.7 6.0 6.2 6.2 6.3 6.4 6.3
5.7 5.6 5.5 5.5 5.2 5.3 5.4 5.7 5.6 5.5 5.6 5.6 5.6 5.3 5.2 5.6 5.9 6.0 5.8 5.4 5.4 5.5 5.6 5.5 5.2 4.6 4.2 4.3 4.4 4.4 4.5 4.5 4.6 5.0 5.3 5.5 5.6 5.8 5.8 5.9 6.1 6.1 6.2
5.9 5.7 5.6 5.5 5.3 5.4 5.4 5.9 6.0 5.6 5.9 5.9 5.8 5.8 5.7 5.9 5.9 5.7 5.7 5.4 5.5 5.6 5.9 5.8 4.8 4.3 4.5 4.2 4.6 4.3 4.3 4.6 4.7 4.9 5.2 5.5 5.6 5.7 5.7 5.8 5.9 6.1 6.1
6.1 5.9 5.6 5.6 5.6 5.6 5.5 5.8 5.9 5.9 6.2 6.5 6.2 6.1 6.1 5.9 5.9 5.5 5.7 5.2 5.2 5.2 5.6 5.9 5.2 5.1 4.3 4.0 4.2 4.2 4.3 4.6 4.6 4.9 4.8 5.3 5.3 5.4 5.8 5.7 5.8 5.8 5.9
6.4 6.1 5.9 5.7 5.8 5.7 5.6 5.7 5.8 5.9 6.3 6.2 6.6 6.2 5.9 6.1 5.9 5.6 5.7 5.2 5.4 5.3 5.9 5.8 5.8 5.4 5.0 4.5 4.4 4.2 4.2 4.5 4.6 4.9 5.0 5.2 5.3 5.4 5.4 5.8 6.0 6.0 5.8
6.2 6.5 6.1 5.7 5.7 5.8 5.6 5.8 5.8 5.9 6.0 5.9 6.1 6.3 6.0 5.8 5.8 5.6 5.6 5.5 5.6 5.9 6.0 5.8 5.8 5.4 5.0 4.4 4.3 4.1 4.3 4.3 4.6 4.8 4.9 5.0 5.5 5.8 5.8 5.6 5.8 6.0 5.9
6.3 6.4 6.4 5.7 5.7 5.8 6.0 5.9 6.0 6.0 6.0 6.0 5.9 5.9 5.9 5.5 5.6 5.6 5.5 5.5 5.5 5.7 5.8 5.6 5.8 5.7 5.0 4.5 4.4 4.3 4.2 4.2 4.4 4.6 5.0 5.5 5.7 5.7 6.0 6.0 5.9 6.0 5.8
6.5 6.5 6.3 5.9 5.6 5.9 6.0 5.9 5.9 5.9 5.9 5.7 5.8 5.8 5.9 5.8 5.6 5.5 5.4 5.3 5.2 5.6 5.7 5.6 5.4 5.5 5.0 4.5 4.3 4.4 4.3 4.2 4.2 5.0 5.1 5.6 5.6 5.8 6.0 6.0 5.9 6.0 5.8
6.4 6.9 6.7 6.2 5.9 5.9 6.0 5.9 5.9 6.0 5.9 5.8 6.0 6.1 5.9 5.9 6.0 5.8 5.5 5.6 5.4 5.5 5.5 5.4 5.4 5.2 5.1 4.6 4.3 4.5 4.4 4.6 4.7 5.0 5.0 5.4 5.3 5.4 5.8 5.8 5.7 5.8 5.8
6.4 6.7 6.5 6.1 5.9 6.1 6.0 6.0 6.2 6.4 6.3 6.1 6.0 6.0 5.9 5.9 6.0 5.9 5.8 5.6 5.8 5.6 5.6 5.6 5.6 5.5 5.5 5.2 4.9 4.7 4.7 4.6 4.8 4.9 5.0 4.9 5.2 5.4 5.4 5.2 5.2 5.6 5.6
6.2 6.3 6.7 6.3 6.0 6.1 6.1 6.1 6.2 6.2 6.2 6.1 5.9 5.9 6.1 6.1 6.1 6.0 5.8 5.7 5.8 5.7 5.7 5.6 5.7 5.5 5.4 5.6 5.6 5.4 5.1 5.0 4.8 4.7 4.7 4.7 5.2 5.2 5.1 5.3 5.2 5.4 5.3
6.7 6.1 6.2 6.3 6.2 6.3 6.3 6.2 6.2 6.3 6.3 6.1 6.0 6.0 6.2 6.2 6.2 6.1 6.0 5.8 5.8 5.8 5.6 5.5 5.6 5.7 5.7 5.6 5.6 5.8 5.7 5.2 5.2 4.9 4.7 4.6 5.1 5.2 5.3 5.6 5.4 5.4 5.3
Wind_Speed
4 7 16 20 20 19 19 18 19 19 19 18 18 19 19 19 18 17 17 16 17 16 15 15 14 13 13 13 14 14 14 14 15 16 16 15 14 15 16 17 17 16 17
8 11 18 21 20 19 19 18 18 18 18 17 16 17 17 17 17 17 17 15 16 14 15 13 12 12 11 13 14 15 14 14 15 15 15 15 14 14 16 16 17 16 16
9 13 19 22 20 20 19 18 18 16 16 16 17 16 15 15 15 15 15 14 13 13 13 12 10 10 11 12 13 14 13 14 14 16 16 14 15 18 17 18 16 17 16
13 15 19 21 20 19 19 17 16 16 16 16 16 13 14 15 14 14 15 14 13 12 11 10 8 8 9 10 13 12 12 12 11 12 10 9 14 15 17 16 17 16 16
12 15 21 21 20 19 18 17 15 16 15 15 15 12 15 15 14 14 13 12 12 11 10 8 7 7 7 7 10 11 9 14 12 11 12 14 14 16 16 17 17 16 15
13 16 22 23 22 19 18 17 16 15 15 15 12 12 14 14 14 14 12 12 12 11 9 8 7 6 6 6 7 10 6 7 11 17 16 13 13 16 16 16 16 15 14
12 17 20 22 21 18 18 16 15 14 14 13 12 11 13 14 13 13 12 11 11 10 9 9 8 6 5 6 7 11 10 14 16 16 12 15 15 17 16 16 14 14 14
13 15 18 21 20 19 18 16 15 14 12 11 11 11 11 12 12 11 11 10 9 9 8 8 8 6 6 6 9 10 8 17 15 13 12 13 17 17 16 15 14 15 13
17 14 16 17 19 19 17 16 14 13 11 10 10 10 9 9 9 8 8 8 7 7 6 7 8 7 5 5 8 6 13 20 16 12 12 13 16 17 16 15 14 14 13
11 13 10 13 16 15 15 15 14 12 11 10 10 9 8 6 5 7 6 4 4 5 5 4 6 6 4 4 5 6 7 17 14 12 13 14 17 16 15 15 14 14 14
11 10 11 11 14 14 14 14 14 13 11 10 9 7 6 3 2 4 5 4 2 2 2 1 2 3 3 4 5 6 10 13 13 12 10 18 17 17 15 14 14 14 14
14 12 9 11 11 14 12 13 14 12 11 9 9 7 5 4 2 5 6 6 3 2 3 2 5 3 2 1 1 7 9 13 12 13 14 14 15 16 14 13 12 12 14
15 12 11 9 13 12 10 13 11 12 12 9 10 10 6 5 8 8 6 4 1 2 3 4 4 5 2 2 4 6 9 9 13 12 13 14 14 15 14 13 12 11 11
16 15 13 12 12 11 12 10 11 9 10 10 11 11 10 7 5 4 4 4 3 4 4 5 5 8 4 4 12 10 11 13 13 12 14 15 14 14 14 13 12 11 11
16 15 14 12 11 11 9 8 8 8 10 12 13 8 10 7 4 3 2 5 4 4 4 6 7 5 1 6 6 11 12 11 13 11 15 14 14 13 13 13 12 11 11
17 16 15 14 12 15 7 8 7 11 13 12 10 12 12 13 9 5 3 6 6 8 7 8 3 4 5 7 2 10 10 12 13 14 13 13 13 13 13 12 12 11 11
15 16 16 14 13 12 8 9 9 10 15 11 13 16 16 10 11 10 5 5 5 6 7 10 1 5 4 5 4 4 11 11 12 13 13 15 13 14 14 13 13 12 10
14 17 17 14 14 11 9 8 8 8 9 10 14 16 16 12 12 10 5 5 7 4 3 4 1 2 2 2 3 2 5 11 11 10 11 13 12 9 12 12 12 10 10
13 18 18 16 15 12 7 8 7 7 6 8 11 12 17 15 16 13 7 6 4 2 3 2 1 1 2 2 2 3 3 4 8 10 9 11 11 8 9 12 12 11 11
14 19 20 15 15 13 6 4 4 2 3 5 8 8 15 15 17 12 8 6 5 1 2 2 1 1 2 1 1 4 2 3 6 6 7 8 11 10 12 11 10 9 9
15 18 20 18 13 10 5 4 3 4 2 2 4 13 12 13 14 10 6 5 5 3 2 2 2 2 2 2 4 3 2 2 2 5 8 7 8 10 9 9 9 6 6
17 20 20 20 16 11 9 7 3 3 2 2 4 9 15 14 14 11 7 5 4 1 3 2 2 2 1 1 3 2 2 3 3 2 2 5 6 9 8 9 9 9 7
19 21 20 20 18 15 12 5 2 3 2 1 2 3 6 14 15 13 11 7 4 2 4 3 3 4 2 1 1 4 2 3 1 2 2 3 5 4 8 9 10 10 9
22 21 20 20 19 15 14 12 11 8 7 4 4 3 5 14 13 15 13 9 6 4 4 4 3 3 3 3 2 2 2 4 3 1 3 3 2 5 6 6 10 13 12
22 20 19 19 19 16 16 15 12 9 6 4 3 5 6 7 14 14 13 10 5 4 5 6 4 4 3 3 2 2 2 2 2 3 2 2 2 3 3 5 12 13 16
21 20 19 18 19 18 18 16 16 14 8 7 5 5 4 5 6 9 12 10 10 6 6 5 5 6 5 3 3 3 3 3 3 2 2 3 4 3 4 4 7 12 17
Wind_Direction
181 154 135 127 121 115 110 105 100 97 93 93 92 92 93 96 100 103 105 107 106 104 105 105 102 94 91 94 100 99 97 95 96 101 103 98 97 107 102 101 100 100 98
145 148 137 131 124 124 117 110 106 104 104 102 95 96 95 96 100 101 103 105 110 110 110 107 103 99 95 95 101 98 98 95 99 101 99 92 86 118 108 110 103 102 101
141 138 137 131 126 122 117 116 113 113 106 103 98 97 99 101 100 100 102 107 106 110 112 115 113 104 98 93 98 101 110 110 104 97 102 83 85 99 114 109 109 107 105
138 134 134 134 130 128 121 124 119 112 108 104 102 97 105 106 99 101 102 104 105 106 106 107 107 100 98 98 98 103 108 100 117 110 99 86 97 101 105 107 110 108 105
126 125 135 133 134 133 126 125 120 113 110 106 105 104 102 101 99 97 99 100 102 103 107 110 106 101 101 102 101 107 115 120 116 104 109 107 106 110 109 114 111 111 112
129 134 136 137 137 136 132 128 119 117 112 112 113 106 106 101 100 99 101 101 102 105 110 111 106 102 101 99 103 103 96 128 106 119 117 119 117 122 112 118 112 115 116
131 136 142 140 141 137 131 131 128 127 123 122 119 109 100 101 101 103 103 102 103 103 101 100 101 98 94 84 85 99 99 135 106 110 121 126 119 118 115 114 115 117 115
131 134 141 142 140 136 138 141 135 132 130 128 125 117 109 102 103 107 109 110 105 101 102 101 96 92 94 83 82 90 96 128 123 123 125 118 122 119 120 120 121 121 119
133 134 142 147 142 143 145 145 139 135 138 138 128 116 107 104 108 110 106 102 100 99 100 99 89 75 73 75 77 93 106 127 126 127 124 122 127 121 124 125 122 121 122
138 138 141 144 137 147 148 147 146 145 147 142 130 120 113 110 118 119 113 111 109 101 95 84 96 98 93 65 77 62 111 134 136 133 133 130 130 127 125 127 127 124 126
142 146 148 142 141 148 154 159 155 157 158 149 136 127 117 111 161 160 152 147 110 76 52 39 92 84 79 81 89 66 88 125 132 128 130 137 134 129 132 131 133 134 134
152 155 159 152 152 155 166 169 171 168 171 162 153 154 147 132 151 195 204 159 116 9 347 5 352 41 120 348 172 114 96 129 133 137 144 146 140 135 133 134 137 141 143
160 159 169 161 165 170 171 179 178 184 183 182 177 155 152 110 139 160 144 101 21 298 318 5 341 314 323 192 188 191 152 126 139 151 156 154 150 142 140 141 137 135 134
163 167 171 169 173 183 177 182 190 183 190 176 187 162 141 142 137 120 125 171 35 259 260 293 287 293 282 269 231 193 148 172 162 156 162 163 156 152 150 148 148 145 143
168 169 175 172 176 186 184 183 191 191 187 189 184 180 161 165 174 163 170 244 219 267 276 287 250 247 6 32 116 185 170 167 144 154 168 170 166 164 162 159 158 159 158
173 175 177 179 180 184 187 180 198 192 198 189 178 194 190 174 167 163 220 236 244 256 275 290 208 198 124 108 35 129 150 134 145 159 176 171 173 176 174 174 170 170 172
177 178 178 181 183 187 179 187 198 221 202 181 192 190 215 193 161 151 195 227 211 233 251 269 238 28 45 61 101 159 131 136 150 170 180 177 179 180 181 183 186 185 184
175 176 181 184 184 184 176 179 170 190 166 178 173 178 199 174 140 140 167 186 210 214 238 241 31 52 73 45 85 131 136 151 170 171 178 180 182 189 192 193 192 188 198
173 178 181 185 184 185 192 167 172 152 138 172 173 184 181 155 157 157 165 183 198 289 236 223 258 164 172 152 123 153 118 155 181 162 189 178 183 186 193 202 201 195 208
170 178 181 181 183 177 175 159 154 175 154 154 186 189 179 165 162 160 164 169 183 238 267 183 195 179 206 188 143 118 105 138 191 158 181 195 176 188 192 195 203 201 207
174 178 182 179 183 167 164 162 174 188 222 158 191 194 197 180 165 167 169 153 172 217 183 173 125 93 3 100 94 12 78 93 151 198 186 185 191 200 202 186 187 196 202
181 181 183 183 179 181 177 182 171 159 191 194 166 205 187 186 175 176 174 184 211 160 205 210 144 119 57 255 118 79 40 345 27 343 210 181 202 186 203 199 183 186 197
186 183 182 183 182 183 181 153 106 92 62 198 219 195 185 188 180 184 187 181 181 155 208 202 174 133 153 349 123 134 90 214 46 329 247 235 193 190 211 200 197 188 191
189 185 179 182 183 182 172 177 181 192 195 207 201 176 187 188 189 189 185 179 180 185 179 195 192 156 139 157 28 62 104 144 155 15 355 310 305 224 213 199 198 196 193
182 184 180 179 181 179 181 181 184 189 196 181 194 199 182 194 191 193 183 180 182 187 210 181 178 170 178 141 145 156 74 70 101 129 191 281 309 247 240 200 191 193 194
184 179 178 176 182 180 182 184 185 188 184 194 194 197 189 189 196 191 188 186 192 189 198 186 195 182 185 152 155 161 163 163 189 150 143 193 196 245 224 216 194 199 197